Regional Weather Roundup
Issued by NWS

Home | Current Version | Previous Version | Graphics & Text | Print | Product List | Glossary On
Versions: 1 2 3 4 5 6 7 8 9 10 11 12 13 14 15 16 17 18 19 20 21 22 23 24 25 26 27 28 29 30 31 32 33 34 35 36 37 38 39 40 41 42 43 44 45 46 47 48 49 50
950
ASUS44 KLIX 150501
RWRLA
LOUISIANA WEATHER ROUNDUP
NATIONAL WEATHER SERVICE NEW ORLEANS LA
1200 AM CDT MON SEP 15 2014

NOTE: "FAIR" INDICATES FEW OR NO CLOUDS BELOW 12,000 FEET WITH NO
      SIGNIFICANT WEATHER AND/OR OBSTRUCTIONS TO VISIBILITY.
      SKY/WX - SKY CONDITION AND SIGNIFICANT WEATHER.
      TMP - AIR TEMPERATURE.    DP   - DEWPOINT TEMPERATURE.
      RH  - RELATIVE HUMIDITY.  PRES - PRESSURE.
      HX  - HEAT INDEX.         WCI  - WIND CHILL INDEX.

*  THESE STATIONS ARE NOT NWS OR FAA STATIONS AND ARE NOT UNDER
   NWS QUALITY CONTROL.

LAZ040-048-061>063-065-066-069-150600-
SOUTHEAST LOUISIANA

CITY           SKY/WX    TMP DP  RH WIND       PRES   REMARKS
N.O. AUDUBON     N/A     83  78  84 MISG        N/A
N.O. INTL ARPT PTCLDY    81  75  82 CALM      30.08F
N.O. LAKEFRONT CLEAR     82  77  84 CALM      30.09S
N.O. DOWNTOWN* FAIR      82  72  69 CALM      30.09S
SLIDELL        PTCLDY    77  74  90 CALM      30.08F
BATON ROUGE    CLEAR     74  71  91 N5        30.10F
BOOTHVILLE     CLEAR     82  77  84 E5        30.08F
BELLE CHASSE   CLEAR     77  72  84 CALM      30.08S
BOGALUSA*      FAIR      77  73  87 CALM      30.11F
GALLIANO*      NOT AVBL
NEW ROADS*     FAIR      71  70  96 CALM      30.11S FOG
GONZALES*      FAIR      76  76 100 CALM      30.09S
HAMMOND*       NOT AVBL
HOUMA*         CLEAR     77  73  86 CALM      30.08S
PORT FOURCHON* CLEAR     84  75  74 E12       30.10S

$$

LAZ041-044-053-054-150600-
SOUTHWEST LOUISIANA

CITY           SKY/WX    TMP DP  RH WIND       PRES   REMARKS
LAKE CHARLES   CLEAR     73  69  87 NE6       30.11S
LAFAYETTE      CLEAR     72  71  97 NE6       30.10F
PATTERSON      CLEAR     75  73  94 NE5       30.11F
SALT POINT       N/A     79  75  87 N5        30.08S
NEW IBERIA     CLEAR     73  70  90 N6        30.10F
CHENAULT AIRPK CLEAR     72  68  89 N3        30.12S

$$

LAZ027-028-150600-
CENTRAL LOUISIANA

CITY           SKY/WX    TMP DP  RH WIND       PRES   REMARKS
FORT POLK      CLEAR     68  66  93 NE3       30.13F
ALEXANDRIA INT CLEAR     68  66  93 CALM      30.12S
ALEXANDRIA     CLEAR     71  66  84 CALM      30.13S

$$

LAZ001-002-150600-
NORTHWEST LOUISIANA

CITY           SKY/WX    TMP DP  RH WIND       PRES   REMARKS
SHREVEPORT     MOCLDY    71  65  81 E3        30.14S
BARKSDALE AFB  NOT AVBL
DTN SHREVEPORT PTCLDY    71  65  81 CALM      30.14F

$$

LAZ014-016-150600-
NORTHEAST LOUISIANA

CITY           SKY/WX    TMP DP  RH WIND       PRES   REMARKS
MONROE         CLEAR     69  66  90 CALM      30.15S
TALLULAH       CLEAR     70  68  93 N5        30.13S

$$




USA.gov is the U.S. government's official web portal to all federal, state and local government web resources and services.